Visibility
15.0 15.0 15.0 14.4 14.7 11.4 15.0 15.0 0.1 15.0 15.0 15.0 15.0 15.0 15.0 15.0 15.0 15.0 15.0 15.0 15.0 15.0 15.0 15.0 15.0 15.0 15.0 15.0 15.0 15.0 15.0 14.9 15.0 15.0 15.0 15.0 15.0 15.0 15.0 10.0 7.5 15.0 10.2 11.6
3.2 6.1 4.5 3.2 4.6 15.0 13.1 8.2 11.0 15.0 15.0 7.5 0.8 15.0 15.0 15.0 15.0 15.0 15.0 15.0 15.0 15.0 15.0 15.0 15.0 15.0 15.0 15.0 15.0 15.0 15.0 15.0 12.6 12.5 15.0 15.0 15.0 15.0 15.0 15.0 8.1 12.0 15.0 15.0
4.8 4.5 3.8 4.5 4.0 9.7 2.5 0.9 0.9 1.7 12.4 15.0 15.0 15.0 15.0 15.0 15.0 15.0 15.0 15.0 15.0 15.0 15.0 15.0 15.0 15.0 15.0 15.0 15.0 15.0 15.0 15.0 15.0 15.0 13.0 11.4 15.0 15.0 4.2 2.8 2.3 13.0 15.0 15.0
3.2 4.7 5.3 1.3 8.4 11.2 4.6 1.1 6.0 11.8 14.2 15.0 15.0 15.0 0.1 13.9 15.0 15.0 15.0 15.0 15.0 15.0 6.6 15.0 15.0 15.0 15.0 15.0 15.0 15.0 14.5 0.2 15.0 15.0 15.0 12.8 15.0 15.0 15.0 15.0 15.0 14.4 12.6 15.0
12.4 14.8 1.0 1.1 6.9 10.7 1.2 0.2 0.3 9.9 14.8 15.0 8.2 0.1 0.4 7.0 0.8 3.5 14.8 15.0 15.0 15.0 15.0 15.0 15.0 15.0 1.1 0.5 14.9 10.4 6.9 0.1 15.0 14.8 15.0 15.0 15.0 15.0 15.0 15.0 15.0 15.0 15.0 15.0
13.4 4.9 1.1 0.5 2.5 2.3 0.6 0.4 0.9 3.2 3.7 0.1 0.1 0.2 8.2 0.4 0.4 0.1 0.1 15.0 0.5 0.1 0.1 0.2 3.8 3.7 3.8 1.3 15.0 15.0 2.2 0.3 0.2 0.3 15.0 14.9 11.5 15.0 15.0 15.0 12.2 15.0 11.2 14.5
10.8 8.0 1.8 0.4 2.5 9.3 7.5 7.6 11.8 0.1 0.1 0.1 0.1 0.1 0.4 0.4 0.1 0.1 0.1 0.1 0.1 0.1 0.8 0.2 0.2 0.3 7.8 0.3 0.1 0.1 0.1 0.1 0.1 0.1 0.2 0.2 15.0 15.0 15.0 15.0 15.0 4.4 10.4 10.3
15.0 12.6 13.1 2.1 6.7 11.7 1.2 0.2 0.4 0.3 0.1 0.1 2.6 0.3 0.1 0.1 0.1 0.2 0.1 0.1 0.1 0.1 1.0 0.2 0.1 4.6 15.0 15.0 15.0 0.6 0.1 0.1 0.1 0.1 0.3 14.2 14.9 15.0 15.0 15.0 15.0 15.0 15.0 15.0
15.0 14.5 5.1 12.9 4.6 3.5 4.6 0.8 1.0 1.6 0.2 0.1 0.1 0.1 0.1 0.1 0.1 0.1 0.1 0.1 0.1 0.6 0.2 0.3 0.1 0.2 4.9 9.6 15.0 15.0 15.0 14.6 0.3 0.2 0.2 7.8 15.0 15.0 15.0 15.0 13.3 12.9 14.8 15.0
8.7 5.7 13.4 5.6 11.0 9.3 0.4 0.5 0.6 0.7 0.1 0.1 0.1 0.1 0.1 0.1 0.1 0.2 0.1 0.2 6.8 15.0 1.2 0.2 0.3 0.4 15.0 10.8 15.0 15.0 15.0 15.0 5.3 2.7 0.2 9.7 15.0 15.0 15.0 15.0 15.0 15.0 15.0 15.0
14.1 14.1 15.0 14.4 12.2 10.8 9.6 0.1 0.1 11.4 0.1 0.1 0.1 0.1 0.1 0.1 0.5 1.8 0.8 5.0 8.0 8.9 0.4 0.4 0.7 0.4 15.0 15.0 15.0 15.0 15.0 15.0 15.0 14.0 3.2 1.5 15.0 14.6 13.6 15.0 15.0 15.0 15.0 15.0
2.5 9.0 4.9 6.3 7.4 5.7 5.8 0.1 0.1 1.5 0.4 0.1 1.4 2.6 0.3 0.1 0.1 0.4 0.4 0.2 13.7 10.5 15.0 13.0 15.0 15.0 15.0 15.0 15.0 15.0 15.0 15.0 15.0 15.0 15.0 15.0 15.0 15.0 15.0 15.0 15.0 15.0 15.0 15.0
0.1 0.1 0.1 0.4 1.1 4.3 1.6 0.2 1.1 5.8 0.5 0.3 1.3 0.4 15.0 15.0 15.0 15.0 7.1 15.0 15.0 15.0 7.3 5.8 5.3 11.8 15.0 15.0 15.0 9.5 15.0 15.0 15.0 15.0 15.0 15.0 15.0 15.0 15.0 15.0 15.0 15.0 15.0 15.0
15.0 15.0 15.0 15.0 15.0 12.9 6.1 8.4 7.0 12.5 10.1 0.8 0.1 15.0 15.0 15.0 15.0 15.0 15.0 15.0 15.0 15.0 15.0 15.0 15.0 15.0 15.0 12.7 15.0 15.0 15.0 10.6 15.0 15.0 15.0 15.0 15.0 15.0 15.0 15.0 15.0 15.0 15.0 15.0
15.0 15.0 15.0 15.0 15.0 15.0 15.0 15.0 15.0 15.0 15.0 0.7 10.3 15.0 15.0 15.0 15.0 15.0 15.0 15.0 15.0 15.0 15.0 15.0 4.6 14.8 15.0 7.1 15.0 12.1 14.8 15.0 15.0 15.0 15.0 15.0 15.0 15.0 15.0 15.0 15.0 15.0 15.0 15.0
15.0 15.0 15.0 15.0 15.0 15.0 15.0 15.0 15.0 15.0 15.0 15.0 15.0 15.0 15.0 15.0 15.0 15.0 15.0 15.0 15.0 15.0 15.0 6.5 15.0 15.0 15.0 14.9 4.2 15.0 15.0 12.6 15.0 15.0 15.0 15.0 15.0 15.0 15.0 15.0 15.0 15.0 15.0 15.0
15.0 15.0 15.0 15.0 15.0 15.0 15.0 10.5 15.0 15.0 15.0 15.0 15.0 15.0 15.0 15.0 15.0 15.0 15.0 15.0 10.4 15.0 10.8 11.9 15.0 15.0 14.5 9.0 4.3 15.0 15.0 15.0 15.0 15.0 15.0 15.0 15.0 15.0 15.0 15.0 15.0 15.0 15.0 15.0
15.0 15.0 15.0 15.0 15.0 15.0 15.0 15.0 15.0 15.0 15.0 15.0 15.0 15.0 15.0 15.0 15.0 15.0 15.0 15.0 15.0 15.0 14.1 11.9 15.0 15.0 15.0 3.9 15.0 15.0 15.0 15.0 15.0 15.0 15.0 15.0 15.0 15.0 15.0 15.0 15.0 15.0 15.0 15.0
15.0 15.0 15.0 15.0 15.0 15.0 15.0 15.0 15.0 15.0 15.0 15.0 15.0 12.6 8.3 15.0 15.0 15.0 15.0 15.0 15.0 15.0 15.0 15.0 15.0 15.0 3.8 15.0 15.0 15.0 15.0 15.0 15.0 15.0 15.0 15.0 15.0 15.0 15.0 15.0 15.0 9.6 12.0 15.0
15.0 15.0 15.0 15.0 15.0 15.0 15.0 15.0 15.0 15.0 15.0 15.0 15.0 15.0 15.0 15.0 15.0 15.0 15.0 15.0 7.3 15.0 15.0 15.0 15.0 14.9 15.0 15.0 15.0 15.0 15.0 15.0 14.7 0.1 0.2 1.8 0.5 10.7 15.0 15.0 15.0 15.0 15.0 14.7
15.0 15.0 15.0 15.0 15.0 15.0 15.0 15.0 15.0 15.0 12.4 14.0 15.0 15.0 15.0 15.0 12.1 3.2 3.9 14.2 9.7 15.0 15.0 15.0 15.0 15.0 15.0 15.0 15.0 15.0 15.0 15.0 10.9 14.8 1.1 2.2 2.6 0.9 1.2 1.1 10.6 6.1 0.7 0.4
15.0 15.0 15.0 15.0 15.0 15.0 15.0 15.0 15.0 15.0 2.2 8.9 3.0 14.2 15.0 15.0 15.0 15.0 12.4 15.0 15.0 15.0 15.0 15.0 15.0 15.0 15.0 15.0 15.0 6.8 0.5 0.1 0.1 0.2 0.1 0.2 0.1 0.2 0.1 0.1 0.2 0.5 0.7 0.6
15.0 15.0 15.0 15.0 15.0 15.0 14.1 9.4 15.0 15.0 13.3 11.3 4.0 4.3 9.6 15.0 15.0 15.0 15.0 15.0 15.0 15.0 15.0 15.0 15.0 15.0 15.0 3.6 0.1 0.2 15.0 1.4 0.2 0.3 0.6 0.2 0.2 0.2 0.1 0.1 0.3 0.2 0.1 0.4
15.0 15.0 15.0 15.0 14.0 4.0 5.1 6.6 4.7 15.0 7.5 13.3 9.7 5.1 5.9 15.0 15.0 11.5 15.0 15.0 15.0 15.0 15.0 15.0 15.0 13.9 0.2 0.3 0.6 0.1 0.2 0.1 0.1 0.1 0.1 0.1 0.1 0.1 0.2 0.2 0.2 0.1 0.1 0.8
15.0 15.0 4.6 5.2 8.5 15.0 15.0 13.1 4.4 15.0 15.0 14.4 13.9 15.0 11.0 15.0 15.0 15.0 15.0 15.0 15.0 15.0 0.4 2.1 1.4 0.2 0.3 0.2 0.2 0.1 0.2 0.2 0.1 0.2 0.1 0.2 0.3 0.2 0.2 2.9 0.4 0.1 0.1 0.1
15.0 15.0 15.0 15.0 15.0 14.0 15.0 15.0 15.0 15.0 15.0 14.6 14.4 15.0 15.0 15.0 6.5 15.0 4.1 0.4 0.3 0.3 0.1 0.3 0.2 0.2 0.2 0.1 0.1 0.2 0.1 0.2 0.2 0.3 0.1 0.1 0.2 0.2 0.3 2.3 14.9 13.1 0.3 0.1
15.0 15.0 15.0 15.0 11.3 3.3 3.5 4.1 5.8 15.0 15.0 15.0 15.0 15.0 4.3 8.1 15.0 0.4 0.2 0.1 0.2 0.5 0.5 1.4 0.1 0.1 0.1 0.2 0.1 0.2 0.1 0.1 0.2 0.2 3.9 14.1 15.0 10.0 0.6 0.5 8.6 0.4 0.1 0.1